When you browse on this site, cookies collect data to enhance your experience and personalize the content and advertising you see.
Visit our Privacy Policy to learn more. By continuing to use the site, you agree to this use of cookies and data.
  • In Belgien
  • Länderverzeichnis
  • Für 7 Tage
  • Wassertemperatur
  • Wetterkarte
  • Widgets
  • user-avatar
    Anmelden

    Stündliche Wetter Kozhina Gora

    Heute, 21 September, Samstag

    Zeit Temperatur Niederschläge Wind Luftdruck Luftfeuchtigkeit
    00:00 +1°C° 0 mm 2 m/S 744 mmHg 95%
    01:00 -1°C° 0 mm 2 m/S 744 mmHg 95%
    02:00 -1°C° 0 mm 2 m/S 744 mmHg 95%
    03:00 -1°C° 0 mm 2 m/S 744 mmHg 95%
    04:00 -1°C° 0 mm 2 m/S 744 mmHg 95%
    05:00 -2°C° 0 mm 2 m/S 743 mmHg 95%
    06:00 +1°C° 0 mm 2 m/S 743 mmHg 90%
    07:00 +2°C° 0 mm 2 m/S 743 mmHg 86%
    08:00 +4°C° 0 mm 2 m/S 743 mmHg 81%
    09:00 +4°C° 0.1 mm 3 m/S 743 mmHg 75%
    10:00 +5°C° 0.1 mm 3 m/S 743 mmHg 70%
    11:00 +8°C° 0.1 mm 3 m/S 742 mmHg 64%
    12:00 +8°C° 0.2 mm 3 m/S 742 mmHg 64%
    13:00 +9°C° 0.2 mm 3 m/S 741 mmHg 63%
    14:00 +9°C° 0.2 mm 3 m/S 741 mmHg 63%
    15:00 +8°C° 0.2 mm 3 m/S 740 mmHg 71%
    16:00 +7°C° 0.2 mm 3 m/S 740 mmHg 78%
    17:00 +5°C° 0.2 mm 3 m/S 739 mmHg 86%
    18:00 +5°C° 0 mm 2 m/S 739 mmHg 89%
    19:00 +4°C° 0 mm 2 m/S 739 mmHg 93%
    20:00 +5°C° 0 mm 1 m/S 738 mmHg 96%
    21:00 +5°C° 0 mm 1 m/S 738 mmHg 96%
    22:00 +5°C° 0 mm 1 m/S 737 mmHg 96%
    23:00 +5°C° 0 mm 1 m/S 736 mmHg 96%

    Morgen, 22 September, Sonntag

    Zeit Temperatur Niederschläge Wind Luftdruck Luftfeuchtigkeit
    00:00 +5°C° 0.2 mm 1 m/S 736 mmHg 96%
    01:00 +5°C° 0.2 mm 1 m/S 735 mmHg 96%
    02:00 +5°C° 0.2 mm 2 m/S 735 mmHg 97%
    03:00 +4°C° 0.6 mm 2 m/S 734 mmHg 96%
    04:00 +3°C° 0.6 mm 3 m/S 734 mmHg 95%
    05:00 +3°C° 0.6 mm 4 m/S 734 mmHg 95%
    06:00 +3°C° 0.1 mm 4 m/S 734 mmHg 92%
    07:00 +3°C° 0.1 mm 4 m/S 734 mmHg 90%
    08:00 +3°C° 0.1 mm 4 m/S 734 mmHg 88%
    09:00 +2°C° 0.1 mm 5 m/S 734 mmHg 81%
    10:00 +3°C° 0.1 mm 5 m/S 735 mmHg 75%
    11:00 +4°C° 0.1 mm 6 m/S 735 mmHg 69%
    12:00 +3°C° 0.2 mm 6 m/S 735 mmHg 72%
    13:00 +3°C° 0.2 mm 6 m/S 736 mmHg 75%
    14:00 +2°C° 0.2 mm 6 m/S 736 mmHg 77%
    15:00 +2°C° 0.1 mm 6 m/S 737 mmHg 78%
    16:00 +2°C° 0.1 mm 5 m/S 737 mmHg 78%
    17:00 +2°C° 0.1 mm 5 m/S 738 mmHg 78%
    18:00 +2°C° 0 mm 5 m/S 739 mmHg 80%
    19:00 +1°C° 0 mm 5 m/S 740 mmHg 82%
    20:00 +1°C° 0 mm 5 m/S 740 mmHg 85%
    21:00 +1°C° 0 mm 5 m/S 741 mmHg 85%
    22:00 +1°C° 0 mm 4 m/S 741 mmHg 85%
    23:00 +1°C° 0 mm 4 m/S 742 mmHg 85%

    übermorgen, 23 September, Montag

    Zeit Temperatur Niederschläge Wind Luftdruck Luftfeuchtigkeit
    00:00 0°C° 0 mm 4 m/S 742 mmHg 86%
    01:00 0°C° 0 mm 4 m/S 743 mmHg 87%
    02:00 -1°C° 0 mm 4 m/S 743 mmHg 89%
    03:00 -1°C° 0 mm 4 m/S 743 mmHg 87%
    04:00 -1°C° 0 mm 4 m/S 744 mmHg 85%
    05:00 -1°C° 0 mm 4 m/S 744 mmHg 84%
    06:00 0°C° 0 mm 4 m/S 744 mmHg 81%
    07:00 0°C° 0 mm 4 m/S 745 mmHg 78%
    08:00 0°C° 0 mm 5 m/S 745 mmHg 76%
    09:00 +2°C° 0 mm 5 m/S 745 mmHg 70%
    10:00 +3°C° 0 mm 5 m/S 745 mmHg 64%
    11:00 +5°C° 0 mm 5 m/S 745 mmHg 58%
    12:00 +5°C° 0 mm 5 m/S 745 mmHg 61%
    13:00 +5°C° 0 mm 5 m/S 745 mmHg 64%
    14:00 +5°C° 0 mm 5 m/S 745 mmHg 67%
    15:00 +4°C° 0 mm 4 m/S 745 mmHg 70%
    16:00 +4°C° 0 mm 4 m/S 745 mmHg 74%
    17:00 +3°C° 0 mm 3 m/S 745 mmHg 78%
    18:00 +3°C° 0 mm 3 m/S 745 mmHg 82%
    19:00 +2°C° 0 mm 3 m/S 745 mmHg 86%
    20:00 +1°C° 0 mm 3 m/S 745 mmHg 90%
    21:00 +1°C° 0 mm 3 m/S 745 mmHg 91%
    22:00 0°C° 0 mm 3 m/S 745 mmHg 93%
    23:00 0°C° 0 mm 3 m/S 745 mmHg 95%

    24 September, Dienstag

    Zeit Temperatur Niederschläge Wind Luftdruck Luftfeuchtigkeit
    00:00 +1°C° 0 mm 2 m/S 746 mmHg 96%
    01:00 +1°C° 0 mm 2 m/S 746 mmHg 96%
    02:00 +1°C° 0 mm 2 m/S 746 mmHg 97%
    03:00 +1°C° 0 mm 2 m/S 746 mmHg 96%
    04:00 +1°C° 0 mm 2 m/S 746 mmHg 95%
    05:00 +1°C° 0 mm 2 m/S 746 mmHg 94%
    06:00 0°C° 0 mm 3 m/S 746 mmHg 90%
    07:00 0°C° 0 mm 3 m/S 746 mmHg 86%
    08:00 +1°C° 0 mm 3 m/S 746 mmHg 83%
    09:00 +1°C° 0 mm 3 m/S 746 mmHg 81%
    10:00 +2°C° 0 mm 3 m/S 746 mmHg 79%
    11:00 +2°C° 0 mm 3 m/S 746 mmHg 78%
    12:00 +3°C° 0 mm 3 m/S 746 mmHg 75%
    13:00 +3°C° 0 mm 3 m/S 746 mmHg 72%
    14:00 +4°C° 0 mm 3 m/S 746 mmHg 69%
    15:00 +3°C° 0 mm 3 m/S 746 mmHg 73%
    16:00 +4°C° 0 mm 2 m/S 746 mmHg 76%
    17:00 +4°C° 0 mm 2 m/S 746 mmHg 79%
    18:00 +3°C° 0 mm 2 m/S 746 mmHg 82%
    19:00 +3°C° 0 mm 1 m/S 746 mmHg 85%
    20:00 +2°C° 0 mm 1 m/S 746 mmHg 88%
    21:00 +2°C° 0 mm 1 m/S 746 mmHg 90%
    22:00 +1°C° 0 mm 1 m/S 746 mmHg 93%
    23:00 +1°C° 0 mm 1 m/S 746 mmHg 95%

    25 September, Mittwoch

    Zeit Temperatur Niederschläge Wind Luftdruck Luftfeuchtigkeit
    00:00 0°C° 0 mm 1 m/S 746 mmHg 95%
    01:00 0°C° 0 mm 1 m/S 746 mmHg 96%
    02:00 0°C° 0 mm 1 m/S 746 mmHg 96%
    03:00 0°C° 0 mm 1 m/S 746 mmHg 96%
    04:00 -1°C° 0 mm 1 m/S 746 mmHg 96%
    05:00 -1°C° 0 mm 1 m/S 746 mmHg 96%
    06:00 +1°C° 0 mm 1 m/S 746 mmHg 91%
    07:00 +2°C° 0 mm 1 m/S 746 mmHg 86%
    08:00 +3°C° 0 mm 1 m/S 746 mmHg 81%
    09:00 +4°C° 0 mm 1 m/S 746 mmHg 77%
    10:00 +5°C° 0 mm 1 m/S 746 mmHg 72%
    11:00 +5°C° 0 mm 1 m/S 747 mmHg 68%
    12:00 +5°C° 0 mm 1 m/S 747 mmHg 68%
    13:00 +5°C° 0 mm 1 m/S 747 mmHg 68%
    14:00 +5°C° 0 mm 1 m/S 747 mmHg 68%
    15:00 +5°C° 0 mm 1 m/S 747 mmHg 70%
    16:00 +4°C° 0 mm 1 m/S 747 mmHg 71%
    17:00 +4°C° 0 mm 1 m/S 747 mmHg 73%
    18:00 +3°C° 0 mm 1 m/S 747 mmHg 76%
    19:00 +3°C° 0 mm 1 m/S 747 mmHg 79%
    20:00 +1°C° 0 mm 0 m/S 747 mmHg 82%
    21:00 +1°C° 0 mm 0 m/S 748 mmHg 86%
    22:00 +1°C° 0 mm 1 m/S 748 mmHg 89%
    23:00 +1°C° 0 mm 1 m/S 748 mmHg 93%

    26 September, Donnerstag

    Zeit Temperatur Niederschläge Wind Luftdruck Luftfeuchtigkeit
    00:00 0°C° 0 mm 1 m/S 748 mmHg 93%
    01:00 0°C° 0 mm 1 m/S 748 mmHg 94%
    02:00 0°C° 0 mm 1 m/S 748 mmHg 94%
    03:00 -1°C° 0 mm 1 m/S 748 mmHg 93%
    04:00 -1°C° 0 mm 1 m/S 749 mmHg 93%
    05:00 -1°C° 0 mm 1 m/S 749 mmHg 92%
    06:00 +1°C° 0 mm 1 m/S 749 mmHg 85%
    07:00 +1°C° 0 mm 0 m/S 749 mmHg 78%
    08:00 +3°C° 0 mm 0 m/S 749 mmHg 71%
    09:00 +4°C° 0 mm 0 m/S 750 mmHg 65%
    10:00 +5°C° 0 mm 0 m/S 750 mmHg 60%
    11:00 +7°C° 0 mm 0 m/S 750 mmHg 55%
    12:00 +6°C° 0 mm 0 m/S 750 mmHg 55%
    13:00 +6°C° 0 mm 0 m/S 749 mmHg 56%
    14:00 +6°C° 0 mm 0 m/S 749 mmHg 57%
    15:00 +5°C° 0 mm 0 m/S 749 mmHg 60%
    16:00 +4°C° 0 mm 0 m/S 749 mmHg 62%
    17:00 +4°C° 0 mm 0 m/S 749 mmHg 65%
    18:00 +4°C° 0 mm 0 m/S 749 mmHg 66%
    19:00 +3°C° 0 mm 0 m/S 750 mmHg 67%
    20:00 +3°C° 0 mm 0 m/S 750 mmHg 68%
    21:00 +3°C° 0 mm 0 m/S 750 mmHg 69%
    22:00 +2°C° 0 mm 0 m/S 750 mmHg 69%
    23:00 +2°C° 0 mm 0 m/S 750 mmHg 70%
    Mehr zeigen